World > North America > United States > New York
Hourly Weather in Palmyra, New YorkPalmyra, New York Hourly Weather

Palmyra, NY Hourly Weather

Hourly Weather Palmyra, New YorkHourly Weather in Palmyra, NY
Lat: 43.06N, Lon: 77.23W  ICAO: KROC
Web Search

Helpful Tip: Abbreviated, 7 Day, 14 Day Forecasts. There is a weather forecast for every taste.

Feedback

Palmyra Hourly Weather

36 Hour Weather Scroll   °F Click to change Palmyra hourly weather to Imperial units.Click to change Palmyra hourly weather to Metric units. °C
Currently, Clear, temperature is 48°F9°C, dew point 44°F7°C, humidity 86%. Wind direction is WSW at 9 mph14 km/h with visibility of 10.00 mi16 km. Barometric pressure is 29.83 in1010 mb.

Oct 17
6:00 AM

Oct 17
7:00 AM

Oct 17
8:00 AM

Oct 17
9:00 AM

Oct 17
10:00 AM

Oct 17
11:00 AM

Oct 17
NOON

Oct 17
1:00 PM

Oct 17
2:00 PM

Oct 17
3:00 PM

Oct 17
4:00 PM

Oct 17
5:00 PM

Oct 17
6:00 PM

Oct 17
7:00 PM

Oct 17
8:00 PM

Oct 17
9:00 PM

Oct 17
10:00 PM

Oct 17
11:00 PM

Oct 18
MIDNIGHT

Oct 18
1:00 AM

Oct 18
2:00 AM

Oct 18
3:00 AM

Oct 18
4:00 AM

Oct 18
5:00 AM

Oct 18
6:00 AM

Oct 18
7:00 AM

Oct 18
8:00 AM

Oct 18
9:00 AM

Oct 18
10:00 AM

Oct 18
11:00 AM

Oct 18
NOON

Oct 18
1:00 PM

Oct 18
2:00 PM

Oct 18
3:00 PM

Oct 18
4:00 PM

Oct 18
5:00 PM
Cloudy Cloudy Cloudy Cloudy Cloudy Cloudy Cloudy Cloudy Cloudy Cloudy Mostly Cloudy Mostly Cloudy Mostly Cloudy Cloudy Cloudy Cloudy Cloudy Cloudy Cloudy Cloudy Cloudy Cloudy Cloudy Cloudy Cloudy Cloudy Cloudy Cloudy Cloudy Cloudy Cloudy Cloudy Cloudy Cloudy Cloudy Cloudy
Cloudy Cloudy Cloudy Cloudy Cloudy Cloudy Cloudy Cloudy Cloudy Cloudy Mostly Cloudy Mostly Cloudy Mostly Cloudy Cloudy Cloudy Cloudy Cloudy Cloudy Cloudy Cloudy Cloudy Cloudy Cloudy Cloudy Cloudy Cloudy Cloudy Cloudy Cloudy Cloudy Cloudy Cloudy Cloudy Cloudy Cloudy Cloudy
50°F10°C 50°F10°C 50°F10°C 51°F11°C 53°F12°C 54°F12°C 54°F12°C 55°F13°C 55°F13°C 55°F13°C 54°F12°C 54°F12°C 52°F11°C 51°F11°C 49°F9°C 48°F9°C 47°F8°C 46°F8°C 45°F7°C 45°F7°C 44°F7°C 44°F7°C 44°F7°C 44°F7°C 44°F7°C 44°F7°C 44°F7°C 45°F7°C 47°F8°C 48°F9°C 49°F9°C 50°F10°C 51°F11°C 51°F11°C 50°F10°C 50°F10°C
Rain Rain Rain Rain Rain Rain Rain Rain Rain Rain Rain Rain Rain Rain Rain Rain Rain Rain Rain Rain Rain Rain Rain Rain Rain Rain Rain Rain Rain Rain Rain Rain Rain - - -
43% 43% 43% 53% 53% 53% 53% 53% 53% 30% 30% 30% 30% 30% 30% 43% 43% 43% 43% 43% 43% 61% 61% 61% 61% 61% 61% 34% 34% 34% 34% 34% 34% 9% 9% 9%
45°F7°C 44°F7°C 44°F7°C 44°F7°C 44°F7°C 44°F7°C 44°F7°C 43°F6°C 43°F6°C 43°F6°C 42°F6°C 42°F6°C 42°F6°C 43°F6°C 43°F6°C 42°F6°C 42°F6°C 41°F5°C 41°F5°C 41°F5°C 41°F5°C 41°F5°C 41°F5°C 41°F5°C 41°F5°C 41°F5°C 41°F5°C 41°F5°C 40°F4°C 40°F4°C 39°F4°C 37°F3°C 36°F2°C 36°F2°C 36°F2°C 36°F2°C
83% 80% 80% 77% 71% 69% 69% 64% 64% 64% 64% 64% 69% 74% 80% 80% 83% 83% 86% 86% 89% 89% 89% 89% 89% 89% 89% 86% 76% 74% 68% 61% 56% 56% 58% 58%
SSW W W W W W W WNW WNW WNW NW NW NW WNW WNW WNW W W W W W W W W WNW NW NW NW NW NW NW NW NW NW NW NW
11 mph 11 mph 11 mph 11 mph 15 mph 15 mph 15 mph 15 mph 15 mph 15 mph 16 mph 16 mph 16 mph 9 mph 9 mph 9 mph 5 mph 5 mph 5 mph 5 mph 5 mph 5 mph 7 mph 7 mph 7 mph 12 mph 12 mph 12 mph 14 mph 14 mph 14 mph 13 mph 13 mph 13 mph 12 mph 12 mph
10 mi16 km 10 mi16 km 10 mi16 km 10 mi16 km 10 mi16 km 10 mi16 km 10 mi16 km 10 mi16 km 10 mi16 km 10 mi16 km 10 mi16 km 10 mi16 km 10 mi16 km 10 mi16 km 10 mi16 km 10 mi16 km 10 mi16 km 10 mi16 km 10 mi16 km 10 mi16 km 10 mi16 km 10 mi16 km 10 mi16 km 10 mi16 km 10 mi16 km 10 mi16 km 10 mi16 km 10 mi16 km 10 mi16 km 10 mi16 km 10 mi16 km 10 mi16 km 10 mi16 km 10 mi16 km 10 mi16 km 10 mi16 km
Hour (EDT)
Weather
Clouds
Temperature
Precip. Type
POP
Dewpoint
Humidity
Wind Direction
Wind Speed
Visibility
POP = Probability of Precipitation. ** Indicates missing data/values from model statistics.

24 Hour Forecast

Today - Showers likely early, then showers with a chance of thunderstorms through early afternoon. Showers likely late. Breezy with highs in the mid 50s. West winds 10 to 20 mph with gusts up to 35 mph. Chance of rain 90%.
Tonight - Showers with a chance of thunderstorms in the evening, then showers likely overnight. Breezy with lows in the upper 40s. West winds 10 to 20 mph with gusts up to 30 mph in the evening. Chance of rain near 100%.

48 Hour Forecast API Feed


Sun, Oct 17
6:00 am

Sun, Oct 17
7:00 am

Sun, Oct 17
8:00 am

Sun, Oct 17
9:00 am

Sun, Oct 17
10:00 am

Sun, Oct 17
11:00 am

Sun, Oct 17
Noon

Sun, Oct 17
1:00 pm

Sun, Oct 17
2:00 pm

Sun, Oct 17
3:00 pm

Sun, Oct 17
4:00 pm

Sun, Oct 17
5:00 pm

Sun, Oct 17
6:00 pm

Sun, Oct 17
7:00 pm

Sun, Oct 17
8:00 pm

Sun, Oct 17
9:00 pm

Sun, Oct 17
10:00 pm

Sun, Oct 17
11:00 pm

Mon, Oct 18
Midnight

Mon, Oct 18
1:00 am

Mon, Oct 18
2:00 am

Mon, Oct 18
3:00 am

Mon, Oct 18
4:00 am

Mon, Oct 18
5:00 am

Mon, Oct 18
6:00 am

Mon, Oct 18
7:00 am

Mon, Oct 18
8:00 am

Mon, Oct 18
9:00 am

Mon, Oct 18
10:00 am

Mon, Oct 18
11:00 am

Mon, Oct 18
Noon

Mon, Oct 18
1:00 pm

Mon, Oct 18
2:00 pm

Mon, Oct 18
3:00 pm

Mon, Oct 18
4:00 pm

Mon, Oct 18
5:00 pm

Mon, Oct 18
6:00 pm

Mon, Oct 18
7:00 pm

Mon, Oct 18
8:00 pm

Mon, Oct 18
9:00 pm

Mon, Oct 18
10:00 pm

Mon, Oct 18
11:00 pm

Tue, Oct 19
Midnight

Tue, Oct 19
1:00 am

Tue, Oct 19
2:00 am

Tue, Oct 19
3:00 am

Tue, Oct 19
4:00 am

Tue, Oct 19
5:00 am
Partly CloudyPatchy Rain PossiblePatchy Rain PossiblePatchy Rain PossibleOvercastLight Rain ShowerOvercastLight Rain ShowerPatchy Light DrizzleCloudyPartly CloudyPatchy Rain PossiblePartly CloudyCloudyCloudyCloudyCloudyLight Rain ShowerCloudyLight Rain ShowerPatchy Light DrizzleLight DrizzleOvercastLight Rain ShowerOvercastLight Rain ShowerOvercastLight Rain ShowerOvercastLight Rain ShowerOvercastPatchy Rain PossiblePatchy Rain PossibleOvercastOvercastPatchy Rain PossibleOvercastOvercastOvercastOvercastOvercastCloudyClearClearClearClearClearClear
Partly cloudy Patchy rain possible Patchy rain possible Patchy rain possible Overcast Light rain showers Overcast Light rain showers Patchy light drizzle Cloudy Partly cloudy Patchy rain possible Partly cloudy Cloudy Cloudy Cloudy Cloudy Light rain showers Cloudy Light rain showers Patchy light drizzle Light drizzle Overcast Light rain showers Overcast Light rain showers Overcast Light rain showers Overcast Light rain showers Overcast Patchy rain possible Patchy rain possible Overcast Overcast Patchy rain possible Overcast Overcast Overcast Overcast Overcast Cloudy Clear Clear Clear Clear Clear Clear
47°F
9°C
47°F
8°C
48°F
9°C
50°F
10°C
53°F
11°C
54°F
12°C
53°F
12°C
54°F
12°C
56°F
13°C
57°F
14°C
56°F
13°C
55°F
13°C
54°F
12°C
52°F
11°C
51°F
11°C
50°F
10°C
50°F
10°C
49°F
9°C
48°F
9°C
47°F
8°C
47°F
8°C
46°F
8°C
46°F
8°C
47°F
8°C
47°F
8°C
49°F
9°C
48°F
9°C
48°F
9°C
48°F
9°C
48°F
9°C
49°F
10°C
49°F
10°C
48°F
9°C
48°F
9°C
48°F
9°C
48°F
9°C
48°F
9°C
48°F
9°C
48°F
9°C
48°F
9°C
48°F
9°C
47°F
8°C
45°F
7°C
43°F
6°C
42°F
6°C
41°F
5°C
42°F
5°C
42°F
6°C
44°F
7°C
44°F
6°C
44°F
7°C
45°F
7°C
46°F
8°C
46°F
8°C
46°F
8°C
44°F
7°C
42°F
5°C
42°F
6°C
42°F
6°C
42°F
5°C
40°F
4°C
39°F
4°C
38°F
3°C
41°F
5°C
44°F
7°C
44°F
7°C
44°F
7°C
44°F
7°C
44°F
7°C
44°F
7°C
44°F
7°C
45°F
7°C
45°F
7°C
45°F
7°C
43°F
6°C
41°F
5°C
41°F
5°C
40°F
5°C
40°F
5°C
39°F
4°C
38°F
4°C
38°F
4°C
38°F
3°C
38°F
4°C
38°F
3°C
37°F
3°C
37°F
3°C
36°F
2°C
36°F
2°C
36°F
2°C
35°F
2°C
35°F
2°C
36°F
2°C
37°F
3°C
37°F
3°C
37°F
3°C
29.8 in
1009 mb
29.8 in
1009 mb
29.83 in
1010 mb
29.83 in
1010 mb
29.83 in
1010 mb
29.83 in
1010 mb
29.83 in
1010 mb
29.83 in
1010 mb
29.8 in
1009 mb
29.8 in
1009 mb
29.8 in
1009 mb
29.8 in
1009 mb
29.83 in
1010 mb
29.85 in
1011 mb
29.85 in
1011 mb
29.88 in
1012 mb
29.88 in
1012 mb
29.85 in
1011 mb
29.85 in
1011 mb
29.85 in
1011 mb
29.85 in
1011 mb
29.85 in
1011 mb
29.83 in
1010 mb
29.83 in
1010 mb
29.83 in
1010 mb
29.85 in
1011 mb
29.88 in
1012 mb
29.91 in
1013 mb
29.91 in
1013 mb
29.94 in
1014 mb
29.97 in
1015 mb
29.97 in
1015 mb
29.97 in
1015 mb
29.97 in
1015 mb
29.97 in
1015 mb
29.97 in
1015 mb
30 in
1016 mb
30 in
1016 mb
30.03 in
1017 mb
30.03 in
1017 mb
30.06 in
1018 mb
30.06 in
1018 mb
30.06 in
1018 mb
30.06 in
1018 mb
30.09 in
1019 mb
30.09 in
1019 mb
30.09 in
1019 mb
30.09 in
1019 mb
87%87%86%82%78%76%77%70%58%57%59%61%59%60%61%72%80%85%88%91%90%92%94%93%93%86%82%76%76%75%72%67%69%68%67%69%68%66%64%63%62%64%69%74%80%83%84%83%
WSWWSWWSWWSWWWNWWNWWNWWNWWNWWNWWNWWNWWNWNWWNWWWWWWWSWWSWWWNWNWNWNWNWNWNWNWNWNWNWNWNWNWNWNWNWNWNWWNWWNWWWWSW
13 mph
21 km/h
13 mph
21 km/h
13 mph
21 km/h
14 mph
23 km/h
15 mph
25 km/h
18 mph
28 km/h
17 mph
27 km/h
17 mph
28 km/h
19 mph
31 km/h
18 mph
30 km/h
18 mph
28 km/h
17 mph
27 km/h
16 mph
26 km/h
15 mph
25 km/h
12 mph
20 km/h
10 mph
16 km/h
9 mph
14 km/h
8 mph
13 km/h
7 mph
12 km/h
6 mph
10 km/h
5 mph
8 km/h
5 mph
8 km/h
6 mph
9 km/h
7 mph
11 km/h
9 mph
15 km/h
13 mph
21 km/h
16 mph
26 km/h
16 mph
26 km/h
17 mph
27 km/h
16 mph
26 km/h
16 mph
26 km/h
16 mph
26 km/h
15 mph
24 km/h
15 mph
23 km/h
14 mph
22 km/h
13 mph
22 km/h
13 mph
20 km/h
12 mph
19 km/h
12 mph
19 km/h
12 mph
19 km/h
12 mph
20 km/h
13 mph
20 km/h
11 mph
18 km/h
9 mph
15 km/h
9 mph
14 km/h
9 mph
14 km/h
10 mph
17 km/h
11 mph
18 km/h
0%88%96%78%0%95%0%67%74%0%0%89%0%0%0%0%0%91%0%90%87%89%0%89%0%88%0%62%0%87%0%71%78%0%0%64%0%0%0%0%0%0%0%0%0%0%0%0%
6 mi
10 km
6 mi
10 km
6 mi
10 km
6 mi
10 km
6 mi
10 km
6 mi
10 km
6 mi
10 km
6 mi
10 km
3 mi
5 km
6 mi
10 km
6 mi
10 km
6 mi
10 km
6 mi
10 km
6 mi
10 km
6 mi
10 km
6 mi
10 km
6 mi
10 km
6 mi
10 km
6 mi
10 km
6 mi
10 km
3 mi
5 km
1 mi
2 km
6 mi
10 km
6 mi
10 km
6 mi
10 km
6 mi
10 km
6 mi
10 km
6 mi
10 km
6 mi
10 km
6 mi
10 km
6 mi
10 km
6 mi
10 km
6 mi
10 km
6 mi
10 km
6 mi
10 km
6 mi
10 km
6 mi
10 km
6 mi
10 km
6 mi
10 km
6 mi
10 km
6 mi
10 km
6 mi
10 km
6 mi
10 km
6 mi
10 km
6 mi
10 km
6 mi
10 km
6 mi
10 km
6 mi
10 km

Day/Time
Weather
Condition
Temperature
Dew Point
Pressure
Humidity
Wind Direction
Wind Speed
Prob Precip %
Visibility
Prob Precip % = Probability of Precipitation.